Location: Cedar Brake
(32.2526°N, 97.8459°W)
Time: 20:12:43
(UTC+00:00)

Cosmos 1461 - Pass Details

Date: 22 April 2026
Orbit: 423 x 480 km, 65.0° (Epoch: 21 May)

Event Time Altitude Azimuth Distance (km) Brightness Sun altitude
Exits shadow 09:54:18 25° 343° (NNW) 1,013 4.3 -23.9°
Drops below altitude 10° 09:56:20 10° 8° (N) 1,665 5.8 -23.6°
Sets 09:58:38 0° 18° (NNE) 2,544 7.0 -23.2°
